Portage, MI

7:08 AM EDT on September 30, 2016 (GMT -0400)
Kalamazoo-Battle Creek International

Weather History for KAZO - December, 2014

Change the Weather History Date:

Tuesday, December 9, 2014

  Actual Average Record
Temperature  
Mean Temperature 36 °F 31 °F  
Max Temperature 39 °F 37 °F 68 °F (1966)
Min Temperature 33 °F 25 °F 1 °F (2002)
Degree Days  
Heating Degree Days 29 34  
Month to date heating degree days 305 295  
Since 1 July heating degree days 1835 1622  
Cooling Degree Days 0 0  
Month to date cooling degree days 0 0  
Year to date cooling degree days 609 675  
Moisture  
Dew Point 31 °F    
Average Humidity 88    
Maximum Humidity 100    
Minimum Humidity 76    
Precipitation  
Precipitation T in 0.07 in 0.44 in (2008)
Month to date precipitation 0.10 0.71  
Year to date precipitation 27.17 34.47  
Sea Level Pressure  
Sea Level Pressure 30.20 in    
Wind  
Wind Speed 9 mph (North)    
Max Wind Speed 16 mph    
Max Gust Speed 20 mph    
Visibility 6 miles    
Events Fog , Rain    
T = Trace of Precipitation, MM = Missing Value Source: NWS Daily Summary

Daily Weather History Graph

Daily Weather History Graph

Search for Another Location

Airport or City:

Trip Planner

Search our weather history database for the weather conditions in past years. The results will help you decide how hot, cold, wet, or windy it might be!

Date:

Astronomy

Dec. 09, 2014 Rise Set
Actual Time 7:59 AM EST 5:09 PM EST
Civil Twilight 7:27 AM EST 5:41 PM EST
Nautical Twilight 6:52 AM EST 6:16 PM EST
Astronomical Twilight 6:18 AM EST 6:50 PM EST
Moon 8:30 PM EST (12/9) 10:09 AM EST (12/9)
Length of Visible Light 10h 14m
Length of Day
9h 10m
Waning Gibbous, 90% of the Moon is Illuminated
Dec 9
Waning Gibbous
Dec 14
Last Quarter
Dec 21
New
Dec 28
First Quarter
Jan 4
Full

Hourly Weather History & Observations

Time (EST) Temp. Windchill Dew Point Humidity Pressure Visibility Wind Dir Wind Speed Gust Speed Precip Events Conditions
12:35 AM 34.0 °F 31.0 °F 32.0 °F 92% 30.03 in 2.5 mi SSE 3.5 mph - N/A   Overcast
12:53 AM 34.0 °F 31.0 °F 32.0 °F 92% 30.05 in 2.5 mi South 3.5 mph - N/A   Overcast
1:34 AM 34.0 °F - 32.0 °F 92% 30.03 in 1.8 mi Calm Calm - N/A   Overcast
1:53 AM 34.0 °F - 32.0 °F 92% 30.06 in 1.2 mi Calm Calm - N/A   Overcast
2:27 AM 34.0 °F - 33.1 °F 96% 30.05 in 0.8 mi Calm Calm - N/A   Overcast
2:53 AM 34.0 °F - 32.0 °F 92% 30.09 in 0.5 mi Calm Calm - N/A Fog Fog
3:38 AM 34.0 °F - 32.0 °F 92% 30.07 in 0.2 mi Calm Calm - N/A Fog Fog
3:53 AM 34.0 °F - 32.0 °F 92% 30.10 in 0.2 mi Calm Calm - N/A Fog Fog
4:42 AM 34.0 °F 28.8 °F 32.0 °F 92% 30.08 in 0.5 mi NW 5.8 mph - N/A Fog Fog
4:53 AM 34.0 °F 28.8 °F 32.0 °F 92% 30.11 in 2.0 mi NNW 5.8 mph - N/A   Overcast
5:04 AM 34.0 °F 28.0 °F 32.0 °F 92% 30.09 in 4.0 mi NNW 6.9 mph - N/A   Overcast
5:40 AM 34.0 °F 28.8 °F 32.0 °F 92% 30.10 in 5.0 mi North 5.8 mph - N/A   Overcast
5:53 AM 34.0 °F 28.8 °F 33.1 °F 96% 30.13 in 5.0 mi NNW 5.8 mph - N/A   Overcast
6:53 AM 34.0 °F 26.6 °F 32.0 °F 92% 30.15 in 4.0 mi North 9.2 mph - N/A   Overcast
7:53 AM 33.8 °F 25.8 °F 32.0 °F 93% 30.15 in 4.0 mi NNW 10.4 mph - N/A   Overcast
8:37 AM 34.0 °F 27.2 °F 33.1 °F 96% 30.16 in 2.5 mi North 8.1 mph - N/A   Overcast
8:44 AM 35.1 °F 27.9 °F 33.1 °F 92% 30.17 in 3.0 mi North 9.2 mph - N/A   Overcast
8:53 AM 35.1 °F 27.4 °F 33.1 °F 92% 30.20 in 3.0 mi North 10.4 mph - N/A   Overcast
9:44 AM 35.1 °F 27.4 °F 33.1 °F 92% 30.19 in 3.0 mi North 10.4 mph - N/A   Overcast
9:53 AM 35.1 °F 27.9 °F 33.1 °F 92% 30.22 in 3.0 mi North 9.2 mph - N/A   Overcast
10:53 AM 36.0 °F 27.5 °F 33.1 °F 89% 30.25 in 3.0 mi North 12.7 mph - N/A   Overcast
11:53 AM 37.0 °F 30.4 °F 34.0 °F 89% 30.25 in 4.0 mi North 9.2 mph - 0.00 in Rain Light Rain
12:53 PM 37.9 °F 30.9 °F 34.0 °F 86% 30.25 in 6.0 mi North 10.4 mph - 0.00 in   Overcast
1:53 PM 37.9 °F 30.5 °F 34.0 °F 86% 30.25 in 8.0 mi NNW 11.5 mph - N/A   Overcast
2:53 PM 37.9 °F 29.6 °F 32.0 °F 79% 30.26 in 10.0 mi North 13.8 mph - N/A   Overcast
3:53 PM 37.9 °F 30.9 °F 32.0 °F 79% 30.28 in 10.0 mi North 10.4 mph - N/A   Overcast
4:53 PM 37.0 °F 29.3 °F 30.0 °F 76% 30.29 in 10.0 mi North 11.5 mph - N/A   Overcast
5:53 PM 36.0 °F 26.7 °F 30.0 °F 79% 30.30 in 10.0 mi North 15.0 mph - N/A   Overcast
6:53 PM 36.0 °F 28.0 °F 30.0 °F 79% 30.31 in 10.0 mi North 11.5 mph - N/A   Overcast
7:28 PM 35.1 °F 26.4 °F 30.0 °F 82% 30.29 in 10.0 mi NNW 12.7 mph - N/A   Overcast
7:53 PM 35.1 °F 27.4 °F 30.0 °F 82% 30.32 in 10.0 mi NNW 10.4 mph - N/A   Overcast
7:55 PM 35.1 °F 27.4 °F 30.0 °F 82% 30.29 in 10.0 mi NNW 10.4 mph - N/A   Overcast
8:53 PM 34.0 °F 26.0 °F 28.9 °F 82% 30.33 in 10.0 mi North 10.4 mph - N/A   Overcast
9:53 PM 34.0 °F 26.0 °F 28.0 °F 79% 30.33 in 10.0 mi NNW 10.4 mph - N/A   Overcast
10:53 PM 33.1 °F 26.9 °F 28.0 °F 82% 30.34 in 10.0 mi North 6.9 mph - N/A   Overcast
11:12 PM 33.1 °F 25.5 °F 28.0 °F 82% 30.31 in 10.0 mi North 9.2 mph - N/A   Overcast
11:46 PM 33.1 °F 25.5 °F 27.0 °F 78% 30.31 in 10.0 mi North 9.2 mph - N/A   Overcast
11:53 PM 33.1 °F 24.4 °F 27.0 °F 78% 30.34 in 10.0 mi North 11.5 mph - N/A   Overcast